Weather History for Silver Bay, MN

Change the Weather History Date:

Monday, November 19, 2012

  Actual Average Record
Temperature  
Mean Temperature 34 °F -  
Max Temperature 44 °F 33 °F 46 °F (2006)
Min Temperature 24 °F 17 °F 5 °F (1996)
Degree Days  
Heating Degree Days 31    
Moisture  
Dew Point 30 °F    
Average Humidity 87    
Maximum Humidity 93    
Minimum Humidity 70    
Precipitation  
Precipitation 0.05 in - - ()
Sea Level Pressure  
Sea Level Pressure 30.03 in    
Wind  
Wind Speed 0 mph (NNW)    
Max Wind Speed 4 mph    
Max Gust Speed -    
Visibility 6 miles    
Events Rain    
Averages and records for this station are not official NWS values.
T = Trace of Precipitation, MM = Missing Value Source: NWS Daily Summary

Daily Weather History Graph

Daily Weather History Graph

Search for Another Location

Airport:

Trip Planner

Search our weather history database for the weather conditions in past years. The results will help you decide how hot, cold, wet, or windy it might be!

Date:

Astronomy

Nov. 19, 2012 Rise Set
Actual Time 7:16 AM CST 4:25 PM CST
Civil Twilight 6:42 AM CST 4:59 PM CST
Nautical Twilight 6:04 AM CST 5:36 PM CST
Astronomical Twilight 5:28 AM CST 6:13 PM CST
Moon 12:10 PM CST (11/19) 11:04 PM CST (11/19)
Length of Visible Light 10h 16m
Length of Day
9h 09m
Waxing Crescent, 41% of the Moon is Illuminated
Nov 19
Waxing Crescent
Nov 20
First Quarter
Nov 28
Full
Dec 6
Last Quarter
Dec 13
New

Hourly Weather History & Observations

Time (CST) Temp. Windchill Dew Point Humidity Pressure Visibility Wind Dir Wind Speed Gust Speed Precip Events Conditions
12:13 AM 24.8 °F - 21.2 °F 86% 30.09 in 5.0 mi Calm Calm - N/A   Clear
12:33 AM 24.8 °F - 21.2 °F 86% 30.08 in 4.0 mi Calm Calm - N/A   Clear
12:53 AM 24.8 °F - 21.2 °F 86% 30.08 in 5.0 mi Calm Calm - N/A   Clear
1:13 AM 24.8 °F - 21.2 °F 86% 30.07 in 5.0 mi Calm Calm - N/A   Clear
1:33 AM 24.8 °F - 21.2 °F 86% 30.07 in 5.0 mi Calm Calm - N/A   Clear
1:53 AM 24.8 °F - 21.2 °F 86% 30.07 in 7.0 mi Calm Calm - N/A   Clear
2:13 AM 24.8 °F - 21.2 °F 86% 30.06 in 5.0 mi Calm Calm - N/A   Clear
2:33 AM 24.8 °F - 21.2 °F 86% 30.06 in 5.0 mi Calm Calm - N/A   Clear
2:53 AM 24.8 °F - 21.2 °F 86% 30.06 in 5.0 mi Calm Calm - N/A   Clear
3:13 AM 24.8 °F - 21.2 °F 86% 30.06 in 5.0 mi Calm Calm - N/A   Clear
3:33 AM 24.8 °F - 21.2 °F 86% 30.06 in 7.0 mi Calm Calm - N/A   Mostly Cloudy
3:53 AM 26.6 °F - 24.8 °F 93% 30.06 in 7.0 mi Calm Calm - N/A   Overcast
4:14 AM 26.6 °F - 24.8 °F 93% 30.05 in 7.0 mi Calm Calm - N/A   Mostly Cloudy
4:33 AM 26.6 °F - 24.8 °F 93% 30.05 in 7.0 mi Calm Calm - N/A   Scattered Clouds
4:53 AM 26.6 °F - 24.8 °F 93% 30.05 in 7.0 mi Calm Calm - N/A   Scattered Clouds
5:13 AM 26.6 °F - 24.8 °F 93% 30.04 in 10.0 mi Calm Calm - N/A   Clear
5:33 AM 28.4 °F - 24.8 °F 86% 30.04 in 7.0 mi Calm Calm - N/A   Clear
5:53 AM 28.4 °F - 24.8 °F 86% 30.05 in 5.0 mi Calm Calm - N/A   Clear
6:13 AM 26.6 °F - 24.8 °F 93% 30.04 in 7.0 mi Calm Calm - N/A   Clear
6:33 AM 26.6 °F - 24.8 °F 93% 30.04 in 5.0 mi Calm Calm - N/A   Clear
6:53 AM 26.6 °F - 24.8 °F 93% 30.04 in 4.0 mi Calm Calm - N/A   Scattered Clouds
7:33 AM 26.6 °F - 24.8 °F 93% 30.05 in 3.0 mi Calm Calm - N/A   Clear
7:53 AM 26.6 °F - 24.8 °F 93% 30.05 in 3.0 mi Calm Calm - N/A   Clear
8:13 AM 28.4 °F - 26.6 °F 93% 30.05 in 5.0 mi Calm Calm - N/A   Clear
8:33 AM 30.2 °F - 26.6 °F 86% 30.05 in 5.0 mi Calm Calm - N/A   Scattered Clouds
8:53 AM 30.2 °F - 28.4 °F 93% 30.05 in 7.0 mi Calm Calm - N/A   Mostly Cloudy
9:13 AM 32.0 °F - 28.4 °F 87% 30.05 in 7.0 mi Calm Calm - N/A   Mostly Cloudy
9:53 AM 35.6 °F - 32.0 °F 87% 30.05 in 7.0 mi Calm Calm - N/A   Scattered Clouds
10:13 AM 37.4 °F - 35.6 °F 93% 30.05 in 10.0 mi Calm Calm - N/A   Scattered Clouds
10:34 AM 41.0 °F - 37.4 °F 87% 30.05 in 10.0 mi Calm Calm - N/A   Scattered Clouds
10:53 AM 44.6 °F - 35.6 °F 71% 30.04 in 10.0 mi Calm Calm - N/A   Scattered Clouds
11:13 AM 44.6 °F - 35.6 °F 71% 30.03 in 10.0 mi Calm Calm - N/A   Scattered Clouds
11:33 AM 42.8 °F - 35.6 °F 76% 30.03 in 10.0 mi Calm Calm - N/A   Mostly Cloudy
11:53 AM 44.6 °F - 35.6 °F 71% 30.02 in 10.0 mi Calm Calm - N/A   Mostly Cloudy
12:13 PM 44.6 °F - 35.6 °F 71% 30.02 in 10.0 mi Calm Calm - N/A Rain Light Rain
12:33 PM 42.8 °F - 33.8 °F 70% 30.02 in 2.5 mi Calm Calm - N/A Rain Heavy Rain
12:53 PM 41.0 °F - 37.4 °F 87% 30.01 in 7.0 mi Calm Calm - 0.02 in Rain Light Rain
1:13 PM 42.8 °F - 37.4 °F 81% 30.00 in 7.0 mi Calm Calm - 0.03 in   Mostly Cloudy
1:33 PM 42.8 °F - 37.4 °F 81% 30.00 in 7.0 mi Calm Calm - 0.03 in   Mostly Cloudy
1:53 PM 42.8 °F - 37.4 °F 81% 30.00 in 7.0 mi Calm Calm - N/A   Mostly Cloudy
2:13 PM 42.8 °F - 37.4 °F 81% 29.99 in 7.0 mi Calm Calm - N/A   Mostly Cloudy
2:33 PM 42.8 °F - 37.4 °F 81% 30.00 in 5.0 mi Calm Calm - N/A   Mostly Cloudy
2:53 PM 42.8 °F - 39.2 °F 87% 30.00 in 5.0 mi Calm Calm - N/A   Scattered Clouds
3:13 PM 42.8 °F - 39.2 °F 87% 30.00 in 5.0 mi Calm Calm - N/A   Mostly Cloudy
3:33 PM 42.8 °F - 39.2 °F 87% 30.00 in 4.0 mi Calm Calm - N/A   Mostly Cloudy
3:53 PM 42.8 °F - 37.4 °F 81% 30.00 in 5.0 mi Calm Calm - N/A   Mostly Cloudy
4:13 PM 42.8 °F - 37.4 °F 81% 30.00 in 5.0 mi Calm Calm - N/A   Scattered Clouds
4:33 PM 41.0 °F - 37.4 °F 87% 30.00 in 5.0 mi Calm Calm - N/A   Scattered Clouds
4:53 PM 41.0 °F - 37.4 °F 87% 30.01 in 7.0 mi Calm Calm - N/A   Mostly Cloudy
5:14 PM 39.2 °F - 35.6 °F 87% 30.01 in 1.2 mi Calm Calm - N/A   Mostly Cloudy
5:33 PM 37.4 °F - 35.6 °F 93% 30.01 in 3.0 mi Calm Calm - N/A   Scattered Clouds
5:53 PM 37.4 °F - 33.8 °F 87% 30.01 in 3.0 mi Calm Calm - N/A   Clear
6:13 PM 35.6 °F - 32.0 °F 87% 30.01 in 1.5 mi Calm Calm - N/A   Mist
6:33 PM 33.8 °F - 30.2 °F 87% 30.01 in 1.0 mi Calm Calm - N/A   Mist
6:53 PM 33.8 °F - 30.2 °F 87% 30.01 in 1.8 mi Calm Calm - N/A   Mist
7:13 PM 32.0 °F - 28.4 °F 87% 30.01 in 1.8 mi Calm Calm - N/A   Mist
7:33 PM 30.2 °F - 28.4 °F 93% 30.01 in 1.2 mi Calm Calm - N/A   Mist
7:53 PM 30.2 °F - 26.6 °F 86% 30.01 in 1.8 mi Calm Calm - N/A   Mist
8:13 PM 30.2 °F - 26.6 °F 86% 30.01 in 1.8 mi Calm Calm - N/A   Mist
8:33 PM 28.4 °F - 26.6 °F 93% 30.00 in 2.0 mi Calm Calm - N/A   Clear
8:53 PM 28.4 °F - 26.6 °F 93% 30.00 in 2.5 mi Calm Calm - N/A   Clear
9:13 PM 28.4 °F - 26.6 °F 93% 29.99 in 1.8 mi Calm Calm - N/A   Mist
9:33 PM 28.4 °F - 26.6 °F 93% 30.00 in 2.0 mi Calm Calm - N/A   Clear
9:53 PM 28.4 °F - 26.6 °F 93% 30.01 in 2.5 mi Calm Calm - N/A   Clear
10:13 PM 28.4 °F - 26.6 °F 93% 30.01 in 3.0 mi Calm Calm - N/A   Clear
10:33 PM 30.2 °F - 28.4 °F 93% 30.01 in 10.0 mi Calm Calm - N/A   Clear
10:53 PM 32.0 °F - 30.2 °F 93% 30.01 in 10.0 mi Calm Calm - N/A   Clear
11:13 PM 33.8 °F 30.8 °F 32.0 °F 93% 30.02 in 10.0 mi NNW 3.5 mph - N/A   Clear
11:33 PM 35.6 °F 32.8 °F 33.8 °F 93% 30.02 in 10.0 mi NNW 3.5 mph - N/A   Clear
11:53 PM 35.6 °F - 32.0 °F 87% 30.02 in 7.0 mi Calm Calm - N/A   Clear